BTK6763 WAMM-WAAA

Flight info

Callsign BTK6763
Flight time 1h 27m
Altitude 38000
Route LUANG W32 VENRU
Aircraft A320/M-SDE3FGHIRWY/LB1

Departure

Time 2026-05-06 01:35
Airport Sam Ratulangi International Airport (WAMM)

Arrival

Time 2026-05-06 03:02
Airport Sultan Hasanuddin International Airport (WAAA)
Time Latitude Longitude Altitude Speed Heading
2026-05-06 01:21 1.54319 124.92343 337 ft 0 kts 310°
2026-05-06 01:28 1.54308 124.92356 334 ft 4 kts 309°
2026-05-06 01:28 1.54291 124.92377 332 ft 4 kts 307°
2026-05-06 01:28 1.54277 124.92399 332 ft 4 kts 287°
2026-05-06 01:29 1.54274 124.92416 332 ft 3 kts 188°
2026-05-06 01:29 1.54276 124.92416 332 ft 0 kts 182°
2026-05-06 01:31 1.54256 124.92416 332 ft 5 kts 182°
2026-05-06 01:31 1.54201 124.92414 336 ft 11 kts 181°
2026-05-06 01:32 1.54108 124.92411 336 ft 16 kts 181°
2026-05-06 01:32 1.53999 124.92415 332 ft 15 kts 161°
2026-05-06 01:32 1.53902 124.92432 336 ft 13 kts 181°
2026-05-06 01:32 1.53814 124.92431 336 ft 12 kts 182°
2026-05-06 01:33 1.53748 124.92453 333 ft 9 kts 126°
2026-05-06 01:33 1.53744 124.92495 335 ft 0 kts 90°
2026-05-06 01:33 1.53744 124.92514 336 ft 5 kts 90°
2026-05-06 01:34 1.53743 124.92565 332 ft 10 kts 90°
2026-05-06 01:34 1.53773 124.92594 334 ft 5 kts 357°
2026-05-06 01:34 1.53850 124.92596 337 ft 31 kts
2026-05-06 01:34 1.54346 124.92617 337 ft 107 kts
2026-05-06 01:35 1.55289 124.92641 360 ft 160 kts
2026-05-06 01:35 1.56415 124.92646 1040 ft 162 kts
2026-05-06 01:35 1.57547 124.92579 1801 ft 162 kts 349°
2026-05-06 01:35 1.58659 124.92315 2311 ft 172 kts 346°
2026-05-06 01:36 1.59894 124.92013 2599 ft 194 kts 346°
2026-05-06 01:36 1.61289 124.91673 2868 ft 219 kts 346°
2026-05-06 01:36 1.62854 124.91289 3262 ft 243 kts 346°
2026-05-06 01:36 1.64572 124.90861 3748 ft 263 kts 345°
2026-05-06 01:37 1.66349 124.90318 4517 ft 270 kts 333°
2026-05-06 01:37 1.67828 124.89168 5329 ft 274 kts 308°
2026-05-06 01:37 1.68675 124.87461 6149 ft 278 kts 283°
2026-05-06 01:37 1.69017 124.85554 6955 ft 280 kts 279°
2026-05-06 01:38 1.69214 124.83610 7746 ft 284 kts 266°
2026-05-06 01:38 1.68699 124.81705 8518 ft 288 kts 244°
2026-05-06 01:38 1.67792 124.79941 9306 ft 290 kts 243°
2026-05-06 01:38 1.66856 124.78145 10086 ft 293 kts 243°
2026-05-06 01:39 1.65882 124.76273 10375 ft 315 kts 243°
2026-05-06 01:39 1.64835 124.74256 10550 ft 338 kts 243°
2026-05-06 01:39 1.63735 124.72128 10994 ft 349 kts 243°
2026-05-06 01:39 1.62612 124.69948 11599 ft 355 kts 243°
2026-05-06 01:40 1.61478 124.67744 12224 ft 359 kts 243°
2026-05-06 01:40 1.60331 124.65511 12841 ft 364 kts 243°
2026-05-06 01:40 1.59169 124.63250 13450 ft 368 kts 243°
2026-05-06 01:40 1.57993 124.60962 14011 ft 372 kts 243°
2026-05-06 01:41 1.56806 124.58649 14547 ft 376 kts 243°
2026-05-06 01:41 1.55607 124.56314 15093 ft 379 kts 243°
2026-05-06 01:41 1.54396 124.53960 15633 ft 383 kts 243°
2026-05-06 01:41 1.53170 124.51582 16161 ft 386 kts 243°
2026-05-06 01:42 1.51935 124.49187 16704 ft 390 kts 243°
2026-05-06 01:42 1.50687 124.46770 17212 ft 393 kts 243°
2026-05-06 01:42 1.49427 124.44330 17716 ft 397 kts 243°
2026-05-06 01:42 1.48157 124.41870 18216 ft 400 kts 243°
2026-05-06 01:43 1.46880 124.39394 18645 ft 403 kts 242°
2026-05-06 01:43 1.45593 124.36891 19068 ft 406 kts 243°
2026-05-06 01:43 1.44300 124.34374 19483 ft 409 kts 242°
2026-05-06 01:43 1.42995 124.31837 19905 ft 412 kts 242°
2026-05-06 01:44 1.41684 124.29284 20311 ft 415 kts 242°
2026-05-06 01:44 1.40361 124.26710 20706 ft 418 kts 242°
2026-05-06 01:44 1.39028 124.24119 21107 ft 421 kts 242°
2026-05-06 01:44 1.37699 124.21546 21497 ft 424 kts 242°
2026-05-06 01:45 1.36323 124.18889 21898 ft 426 kts 242°
2026-05-06 01:45 1.34955 124.16248 22285 ft 429 kts 242°
2026-05-06 01:45 1.33582 124.13589 22678 ft 432 kts 242°
2026-05-06 01:45 1.32205 124.10914 23043 ft 435 kts 242°
2026-05-06 01:46 1.30839 124.08256 23393 ft 437 kts 242°
2026-05-06 01:46 1.29447 124.05541 23711 ft 440 kts 242°
2026-05-06 01:46 1.28065 124.02847 24020 ft 442 kts 242°
2026-05-06 01:46 1.26675 124.00139 24331 ft 444 kts 242°
2026-05-06 01:47 1.25260 123.97388 24644 ft 446 kts 242°
2026-05-06 01:47 1.23829 123.94628 24960 ft 448 kts 240°
2026-05-06 01:47 1.22078 123.92056 25256 ft 449 kts 228°
2026-05-06 01:47 1.19816 123.89916 25557 ft 449 kts 216°
2026-05-06 01:48 1.17153 123.88292 25835 ft 449 kts 204°
2026-05-06 01:48 1.14213 123.87256 26122 ft 449 kts 191°
2026-05-06 01:48 1.11125 123.86856 26404 ft 448 kts 180°
2026-05-06 01:48 1.08001 123.86810 26690 ft 450 kts 179°
2026-05-06 01:49 1.04866 123.86754 26988 ft 452 kts 180°
2026-05-06 01:49 1.01712 123.86689 27282 ft 454 kts 180°
2026-05-06 01:49 0.98551 123.86622 27570 ft 456 kts 180°
2026-05-06 01:49 0.95375 123.86556 27859 ft 458 kts 180°
2026-05-06 01:50 0.92185 123.86492 28142 ft 459 kts 180°
2026-05-06 01:50 0.88984 123.86428 28405 ft 461 kts 180°
2026-05-06 01:50 0.85766 123.86366 28675 ft 463 kts 180°
2026-05-06 01:50 0.82536 123.86307 28938 ft 465 kts 180°
2026-05-06 01:51 0.79296 123.86246 29210 ft 467 kts 180°
2026-05-06 01:51 0.76040 123.86183 29471 ft 469 kts 180°
2026-05-06 01:51 0.72776 123.86121 29728 ft 470 kts 180°
2026-05-06 01:51 0.69496 123.86061 29978 ft 472 kts 180°
2026-05-06 01:52 0.66206 123.86003 30191 ft 474 kts 180°
2026-05-06 01:52 0.62901 123.85941 30413 ft 475 kts 180°
2026-05-06 01:52 0.59602 123.85875 30710 ft 474 kts 180°
2026-05-06 01:52 0.57417 123.85832 30929 ft 473 kts 180°
2026-05-06 01:53 0.53028 123.85744 31379 ft 471 kts 180°
2026-05-06 01:53 0.49750 123.85677 31700 ft 470 kts 180°
2026-05-06 01:53 0.47585 123.85632 31897 ft 470 kts 180°
2026-05-06 01:53 0.44321 123.85564 32231 ft 468 kts 180°
2026-05-06 01:54 0.41072 123.85500 32562 ft 467 kts 180°
2026-05-06 01:54 0.37819 123.85440 32881 ft 466 kts 180°
2026-05-06 01:54 0.34579 123.85382 33210 ft 465 kts 180°
2026-05-06 01:54 0.31355 123.85325 33543 ft 464 kts 180°
2026-05-06 01:55 0.28132 123.85266 33868 ft 463 kts 180°
2026-05-06 01:55 0.24915 123.85208 34159 ft 462 kts 180°
2026-05-06 01:55 0.21708 123.85149 34429 ft 461 kts 180°
2026-05-06 01:55 0.18499 123.85086 34705 ft 460 kts 180°
2026-05-06 01:56 0.15306 123.85020 34964 ft 459 kts 180°
2026-05-06 01:56 0.12116 123.84880 35215 ft 459 kts 186°
2026-05-06 01:56 0.08993 123.84235 35469 ft 459 kts 197°
2026-05-06 01:56 0.06037 123.83036 35716 ft 459 kts 207°
2026-05-06 01:57 0.03330 123.81341 35960 ft 460 kts 217°
2026-05-06 01:57 0.00899 123.79266 36194 ft 460 kts 220°
2026-05-06 01:57 -0.01494 123.77150 36427 ft 459 kts 220°
2026-05-06 01:57 -0.03882 123.75038 36677 ft 458 kts 220°
2026-05-06 01:58 -0.06266 123.72926 36902 ft 457 kts 220°
2026-05-06 01:58 -0.08644 123.70819 37146 ft 456 kts 220°
2026-05-06 01:58 -0.11020 123.68716 37381 ft 455 kts 220°
2026-05-06 01:58 -0.13388 123.66621 37614 ft 454 kts 220°
2026-05-06 01:59 -0.15759 123.64530 37839 ft 454 kts 220°
2026-05-06 01:59 -0.18124 123.62442 37904 ft 454 kts 220°
2026-05-06 01:59 -0.22847 123.58263 37904 ft 453 kts 220°
2026-05-06 02:00 -0.27527 123.54114 37904 ft 452 kts 220°
2026-05-06 02:00 -0.32264 123.49920 37906 ft 452 kts 220°
2026-05-06 02:01 -0.36964 123.45760 37906 ft 452 kts 220°
2026-05-06 02:01 -0.41640 123.41626 37907 ft 452 kts 220°
2026-05-06 02:02 -0.46375 123.37440 37908 ft 452 kts 220°
2026-05-06 02:02 -0.51077 123.33277 37912 ft 452 kts 220°
2026-05-06 02:03 -0.55753 123.29144 37916 ft 452 kts 220°
2026-05-06 02:03 -0.60454 123.24979 37925 ft 452 kts 220°
2026-05-06 02:04 -0.65152 123.20818 37930 ft 451 kts 220°
2026-05-06 02:04 -0.69847 123.16666 37932 ft 451 kts 220°
2026-05-06 02:05 -0.74540 123.12512 37937 ft 450 kts 220°
2026-05-06 02:05 -0.79221 123.08365 37943 ft 450 kts 220°
2026-05-06 02:06 -0.83900 123.04222 37937 ft 450 kts 220°
2026-05-06 02:06 -0.88583 123.00078 37930 ft 450 kts 220°
2026-05-06 02:07 -0.93296 122.95961 37926 ft 450 kts 219°
2026-05-06 02:07 -0.98055 122.91872 37927 ft 451 kts 219°
2026-05-06 02:08 -1.02824 122.87785 37933 ft 452 kts 219°
2026-05-06 02:08 -1.07586 122.83678 37936 ft 453 kts 219°
2026-05-06 02:09 -1.12354 122.79559 37938 ft 453 kts 219°
2026-05-06 02:09 -1.17128 122.75432 37941 ft 454 kts 219°
2026-05-06 02:10 -1.21902 122.71306 37948 ft 454 kts 219°
2026-05-06 02:10 -1.26691 122.67180 37954 ft 454 kts 219°
2026-05-06 02:11 -1.31475 122.63055 37952 ft 455 kts 219°
2026-05-06 02:11 -1.36265 122.58916 37946 ft 455 kts 219°
2026-05-06 02:12 -1.41051 122.54773 37942 ft 455 kts 219°
2026-05-06 02:12 -1.45841 122.50632 37944 ft 456 kts 219°
2026-05-06 02:13 -1.50610 122.46514 37944 ft 456 kts 219°
2026-05-06 02:13 -1.55417 122.42369 37947 ft 456 kts 219°
2026-05-06 02:14 -1.60219 122.38219 37944 ft 457 kts 219°
2026-05-06 02:14 -1.65029 122.34068 37946 ft 457 kts 219°
2026-05-06 02:15 -1.69835 122.29919 37944 ft 457 kts 219°
2026-05-06 02:15 -1.74648 122.25769 37942 ft 457 kts 220°
2026-05-06 02:16 -1.79467 122.21614 37932 ft 458 kts 220°
2026-05-06 02:16 -1.84286 122.17445 37927 ft 458 kts 220°
2026-05-06 02:17 -1.89106 122.13266 37916 ft 459 kts 220°
2026-05-06 02:17 -1.93939 122.09088 37919 ft 460 kts 219°
2026-05-06 02:18 -1.98784 122.04905 37920 ft 461 kts 219°
2026-05-06 02:18 -2.03641 122.00710 37918 ft 462 kts 219°
2026-05-06 02:19 -2.08504 121.96504 37920 ft 462 kts 219°
2026-05-06 02:19 -2.13372 121.92301 37926 ft 463 kts 219°
2026-05-06 02:20 -2.20680 121.85988 37929 ft 463 kts 219°
2026-05-06 02:21 -2.25548 121.81771 37933 ft 463 kts 219°
2026-05-06 02:21 -2.30426 121.77548 37936 ft 464 kts 219°
2026-05-06 02:22 -2.35314 121.73321 37943 ft 464 kts 219°
2026-05-06 02:22 -2.40202 121.69099 37949 ft 465 kts 219°
2026-05-06 02:23 -2.45129 121.64911 37950 ft 465 kts 218°
2026-05-06 02:23 -2.50149 121.60830 37952 ft 465 kts 217°
2026-05-06 02:24 -2.55184 121.56768 37954 ft 466 kts 217°
2026-05-06 02:24 -2.60202 121.52664 37964 ft 466 kts 217°
2026-05-06 02:25 -2.65210 121.48543 37967 ft 466 kts 217°
2026-05-06 02:25 -2.70213 121.44430 37966 ft 466 kts 217°
2026-05-06 02:26 -2.75189 121.40354 37971 ft 465 kts 217°
2026-05-06 02:26 -2.80201 121.36252 37975 ft 465 kts 217°
2026-05-06 02:27 -2.85199 121.32153 37974 ft 464 kts 217°
2026-05-06 02:27 -2.90185 121.28046 37970 ft 464 kts 217°
2026-05-06 02:28 -2.95175 121.23948 37974 ft 464 kts 217°
2026-05-06 02:28 -3.00169 121.19852 37982 ft 464 kts 217°
2026-05-06 02:29 -3.05160 121.15763 37979 ft 463 kts 217°
2026-05-06 02:29 -3.10494 121.12247 37980 ft 458 kts 201°
2026-05-06 02:30 -3.16568 121.10543 37980 ft 453 kts 188°
2026-05-06 02:30 -3.22760 121.09373 37981 ft 453 kts 189°
2026-05-06 02:31 -3.28953 121.08192 37985 ft 453 kts 189°
2026-05-06 02:31 -3.35153 121.07006 37983 ft 453 kts 189°
2026-05-06 02:32 -3.41342 121.05815 37986 ft 453 kts 189°
2026-05-06 02:32 -3.47499 121.04633 37984 ft 453 kts 189°
2026-05-06 02:33 -3.53732 121.03441 37977 ft 453 kts 189°
2026-05-06 02:33 -3.55781 121.03049 37972 ft 453 kts 189°
2026-05-06 02:34 -3.66074 121.01094 37966 ft 453 kts 189°
2026-05-06 02:34 -3.72254 120.99906 37955 ft 453 kts 189°
2026-05-06 02:35 -3.78440 120.98722 37947 ft 452 kts 189°
2026-05-06 02:35 -3.84625 120.97538 37937 ft 452 kts 189°
2026-05-06 02:36 -3.90808 120.96352 37928 ft 452 kts 189°
2026-05-06 02:36 -3.96991 120.95169 37921 ft 452 kts 189°
2026-05-06 02:37 -4.03181 120.93990 37917 ft 452 kts 189°
2026-05-06 02:37 -4.09362 120.92808 37913 ft 453 kts 189°
2026-05-06 02:38 -4.15551 120.91623 37861 ft 454 kts 189°
2026-05-06 02:38 -4.18654 120.91027 37589 ft 454 kts 189°
2026-05-06 02:38 -4.21755 120.90431 37336 ft 454 kts 189°
2026-05-06 02:38 -4.23804 120.90037 37068 ft 454 kts 189°
2026-05-06 02:39 -4.27967 120.89235 36005 ft 458 kts 189°
2026-05-06 02:39 -4.30043 120.88838 35462 ft 460 kts 189°
2026-05-06 02:39 -4.33213 120.88232 34585 ft 465 kts 189°
2026-05-06 02:39 -4.37495 120.87418 33294 ft 473 kts 189°
2026-05-06 02:40 -4.39646 120.87009 32569 ft 477 kts 189°
2026-05-06 02:40 -4.42929 120.86381 31507 ft 482 kts 189°
2026-05-06 02:40 -4.46234 120.85747 30685 ft 483 kts 189°
2026-05-06 02:40 -4.49531 120.85114 29862 ft 482 kts 189°
2026-05-06 02:41 -4.52802 120.84484 29133 ft 477 kts 189°
2026-05-06 02:41 -4.56041 120.83862 28454 ft 471 kts 189°
2026-05-06 02:41 -4.59190 120.83022 27774 ft 467 kts 200°
2026-05-06 02:41 -4.62055 120.81538 27102 ft 464 kts 213°
2026-05-06 02:42 -4.64515 120.79461 26462 ft 462 kts 225°
2026-05-06 02:42 -4.66449 120.76903 25811 ft 461 kts 239°
2026-05-06 02:42 -4.67785 120.73993 25152 ft 459 kts 249°
2026-05-06 02:42 -4.68889 120.71000 24507 ft 457 kts 249°
2026-05-06 02:43 -4.69994 120.68031 23894 ft 454 kts 249°
2026-05-06 02:43 -4.71099 120.65076 23246 ft 451 kts 249°
2026-05-06 02:43 -4.72194 120.62150 22640 ft 446 kts 249°
2026-05-06 02:43 -4.73275 120.59256 22112 ft 440 kts 249°
2026-05-06 02:44 -4.74338 120.56405 21579 ft 435 kts 249°
2026-05-06 02:44 -4.75389 120.53583 21067 ft 430 kts 249°
2026-05-06 02:44 -4.76425 120.50794 20551 ft 425 kts 249°
2026-05-06 02:44 -4.77452 120.48028 20026 ft 422 kts 249°
2026-05-06 02:45 -4.78473 120.45286 19494 ft 419 kts 249°
2026-05-06 02:45 -4.79489 120.42563 18965 ft 416 kts 249°
2026-05-06 02:45 -4.80500 120.39853 18414 ft 414 kts 249°
2026-05-06 02:45 -4.81509 120.37148 17808 ft 413 kts 249°
2026-05-06 02:46 -4.82510 120.34466 17253 ft 410 kts 249°
2026-05-06 02:46 -4.83502 120.31800 16704 ft 407 kts 249°
2026-05-06 02:46 -4.84484 120.29155 16154 ft 404 kts 249°
2026-05-06 02:46 -4.85466 120.26515 15612 ft 402 kts 249°
2026-05-06 02:47 -4.86443 120.23893 15075 ft 400 kts 248°
2026-05-06 02:47 -4.87414 120.21292 14673 ft 395 kts 248°
2026-05-06 02:47 -4.88361 120.18742 14400 ft 386 kts 248°
2026-05-06 02:47 -4.89285 120.16252 14111 ft 378 kts 248°
2026-05-06 02:48 -4.90194 120.13799 13813 ft 372 kts 248°
2026-05-06 02:48 -4.91091 120.11381 13511 ft 368 kts 248°
2026-05-06 02:48 -4.91981 120.08986 13216 ft 367 kts 248°
2026-05-06 02:48 -4.92873 120.06593 12929 ft 366 kts 248°
2026-05-06 02:49 -4.93761 120.04207 12681 ft 364 kts 248°
2026-05-06 02:49 -4.94522 120.01788 12443 ft 365 kts 259°
2026-05-06 02:49 -4.94591 119.99250 12164 ft 365 kts 277°
2026-05-06 02:49 -4.93890 119.96817 11849 ft 363 kts 296°
2026-05-06 02:50 -4.92500 119.94737 11472 ft 358 kts 314°
2026-05-06 02:50 -4.90618 119.93137 11115 ft 355 kts 324°
2026-05-06 02:50 -4.88653 119.91635 10750 ft 354 kts 324°
2026-05-06 02:50 -4.86713 119.90142 10473 ft 347 kts 324°
2026-05-06 02:51 -4.84837 119.88691 10349 ft 335 kts 324°
2026-05-06 02:51 -4.83029 119.87290 10229 ft 323 kts 324°
2026-05-06 02:51 -4.81280 119.85935 10094 ft 313 kts 324°
2026-05-06 02:51 -4.79569 119.84610 9885 ft 308 kts 324°
2026-05-06 02:52 -4.77876 119.83302 9660 ft 306 kts 324°
2026-05-06 02:52 -4.76199 119.82006 9431 ft 303 kts 324°
2026-05-06 02:52 -4.74531 119.80718 9215 ft 302 kts 324°
2026-05-06 02:52 -4.72865 119.79433 8987 ft 301 kts 324°
2026-05-06 02:53 -4.71205 119.78154 8761 ft 301 kts 324°
2026-05-06 02:53 -4.69544 119.76875 8539 ft 300 kts 324°
2026-05-06 02:53 -4.67905 119.75588 8326 ft 299 kts 320°
2026-05-06 02:53 -4.66712 119.73895 8113 ft 302 kts 290°
2026-05-06 02:54 -4.66474 119.71829 7841 ft 301 kts 261°
2026-05-06 02:54 -4.67239 119.69906 7444 ft 297 kts 232°
2026-05-06 02:54 -4.68485 119.68278 7093 ft 291 kts 230°
2026-05-06 02:54 -4.69700 119.66668 6737 ft 288 kts 230°
2026-05-06 02:55 -4.70973 119.65134 6388 ft 283 kts 219°
2026-05-06 02:55 -4.72577 119.64058 6036 ft 274 kts 200°
2026-05-06 02:55 -4.74371 119.63531 5458 ft 275 kts 182°
2026-05-06 02:55 -4.76305 119.63604 4979 ft 271 kts 166°
2026-05-06 02:56 -4.78102 119.63881 4851 ft 251 kts 168°
2026-05-06 02:56 -4.79751 119.64102 4605 ft 237 kts 169°
2026-05-06 02:56 -4.81377 119.64313 4338 ft 234 kts 169°
2026-05-06 02:56 -4.82981 119.64523 4031 ft 232 kts 169°
2026-05-06 02:57 -4.84580 119.64735 3761 ft 230 kts 169°
2026-05-06 02:57 -4.86128 119.64941 3664 ft 220 kts 169°
2026-05-06 02:57 -4.87658 119.65150 3571 ft 219 kts 169°
2026-05-06 02:57 -4.89139 119.65333 3476 ft 216 kts 175°
2026-05-06 02:58 -4.90583 119.65091 3376 ft 206 kts 199°
2026-05-06 02:58 -4.91821 119.64430 3299 ft 202 kts 207°
2026-05-06 02:58 -4.93025 119.63739 3061 ft 198 kts 207°
2026-05-06 02:58 -4.94224 119.63051 2801 ft 198 kts 207°
2026-05-06 02:59 -4.95410 119.62368 2544 ft 194 kts 208°
2026-05-06 02:59 -4.96570 119.61700 2300 ft 191 kts 208°
2026-05-06 02:59 -4.97689 119.61054 2065 ft 179 kts 208°
2026-05-06 02:59 -4.98717 119.60461 1847 ft 163 kts 208°
2026-05-06 03:00 -4.99666 119.59915 1652 ft 152 kts 208°
2026-05-06 03:00 -5.00569 119.59395 1453 ft 148 kts 209°
2026-05-06 03:00 -5.01453 119.58886 1274 ft 146 kts 209°
2026-05-06 03:00 -5.02331 119.58380 1087 ft 145 kts 210°
2026-05-06 03:01 -5.03207 119.57875 901 ft 145 kts 210°
2026-05-06 03:01 -5.04079 119.57373 706 ft 144 kts 210°
2026-05-06 03:01 -5.04948 119.56872 514 ft 144 kts 210°
2026-05-06 03:01 -5.05811 119.56368 316 ft 143 kts 210°
2026-05-06 03:02 -5.06670 119.55879 117 ft 142 kts 209°
2026-05-06 03:02 -5.07486 119.55403 41 ft 120 kts 210°
2026-05-06 03:02 -5.08057 119.55079 39 ft 70 kts 210°
2026-05-06 03:02 -5.08383 119.54892 40 ft 42 kts 209°
2026-05-06 03:03 -5.08553 119.54722 41 ft 29 kts 240°
2026-05-06 03:03 -5.08606 119.54604 42 ft 17 kts 271°
2026-05-06 03:03 -5.08552 119.54495 41 ft 19 kts 300°
2026-05-06 03:03 -5.08474 119.54413 41 ft 12 kts
2026-05-06 03:04 -5.08403 119.54449 41 ft 11 kts 24°
2026-05-06 03:04 -5.08341 119.54480 41 ft 9 kts 29°
2026-05-06 03:04 -5.08288 119.54512 41 ft 8 kts 30°
2026-05-06 03:04 -5.08242 119.54539 41 ft 7 kts 30°
2026-05-06 03:05 -5.08202 119.54558 41 ft 5 kts
2026-05-06 03:05 -5.08183 119.54534 41 ft 4 kts 299°
2026-05-06 03:05 -5.08170 119.54511 41 ft 3 kts 300°
2026-05-06 03:05 -5.08164 119.54502 41 ft 0 kts 299°